Regional Weather Roundup
Issued by NWS

Home | Current Version | Previous Version | Text Only | Print | Product List | Glossary On
Versions: 1 2 3 4 5 6 7 8 9 10 11 12 13 14 15 16 17 18 19 20 21 22 23 24 25 26 27 28 29 30 31 32 33 34 35 36 37 38 39 40 41 42 43 44 45 46 47 48 49 50
000
ASUS43 KLOT 050721
RWRIL

ILLINOIS REGIONAL WEATHER ROUNDUP
NATIONAL WEATHER SERVICE CHICAGO/ROMEOVILLE IL
200 AM CDT SAT SEP 05 2015

NOTE: "FAIR" INDICATES FEW OR NO CLOUDS BELOW 12,000 FEET WITH NO
SIGNIFICANT WEATHER AND/OR OBSTRUCTIONS TO VISIBILITY.

* THESE STATIONS ARE NOT UNDER NWS QUALITY CONTROL. THEY ALSO MAY NOT
  REPORT WEATHER SUCH AS PRECIPITATION OR FOG.

ILZ001-002-007-009-015-016-024-050800-
NORTHWEST ILLINOIS

CITY           SKY/WX    TMP DP  RH WIND       PRES   REMARKS
MOLINE         PTCLDY    76  68  76 CALM      30.01S
STERLING*      CLEAR     72  70  94 E5        30.02R
SAVANNA*       CLEAR     73  70  91 E5        30.02S FOG
$$

ILZ003-004-008-010-011-017-018-050800-
NORTH CENTRAL ILLINOIS

CITY           SKY/WX    TMP DP  RH WIND       PRES   REMARKS
ROCKFORD       PTCLDY    70  66  87 SE3       30.06R
FREEPORT*      MOCLDY    68  67  97 E3        30.06S FOG
ROCHELLE*      PTCLDY    68  67  95 CALM      30.04F FOG
DE KALB*       PTCLDY    69  66  92 SE5       30.06S FOG
PERU*          LGT RAIN  73  67  83 CALM      30.04F
$$

ILZ005-006-012>014-019>023-050800-
NORTHEAST ILLINOIS

CITY           SKY/WX    TMP DP  RH WIND       PRES   REMARKS
CHICAGO-OHARE  PTCLDY    72  67  84 E3        30.04S
CHICAGO-MIDWAY PTCLDY    74  67  78 E5        30.04F
AURORA         PTCLDY    69  66  90 E5        30.05S
LANSING*       CLEAR     68  67  94 CALM      30.05S FOG
JOLIET*        CLEAR     69  68  95 CALM      30.04S FOG
WAUKEGAN       CLEAR     65  65 100 CALM      30.05F FOG
DUPAGE AIRPORT CLEAR     71  66  84 CALM      30.04F
KANKAKEE*      CLEAR     69  66  90 CALM      30.05S
WHEELING       NOT AVBL
MORRIS*        CLEAR     70  66  88 CALM      30.03S
ROMEOVILLE*    CLEAR     69  66  89 SE3       30.05S
NORTHERLY ISL    N/A     71  68  90 NE2         N/A
$$

LMZ740>746-050800-
SOUTHERN LAKE MICHIGAN

STATION/POSITION SKY/WX   TEMP    WIND        PRES    VSBY  WAVE
                          AIR SEA DIR/SP/G                  HT/PER
                          (F)     (DEG/KT/KT) (MB)    (MI)  (FT/S)
SOUTHERN BUOY              69 71  160/  2/  4 1017.5F         1
WILMETTE HARBOR            71 71  270/  4/  4   N/A           1
HARRISON CRIB              71     100/  3/  3   N/A
BURNHAM HARBOR             70     330/  2/  3   N/A
CALUMET HARBOR             72      20/  2/  3   N/A
BURNS HARBOR               73     340/  2/  3 1018.3S
MICHIGAN CITY              71     120/  5/  6   N/A
MICHIGAN CITY 6N           72 74  120/  6/  8   N/A           1
ST. JOSEPH                 72 75  160/  4/  6   N/A           1
$$

ILZ025>027-034>036-040-047-049-050-058-095>099-050800-
WEST-CENTRAL ILLINOIS

CITY           SKY/WX    TMP DP  RH WIND       PRES   REMARKS
QUINCY         CLEAR     76  69  79 S3        30.03S
GALESBURG*     PTCLDY    72  67  86 S3        30.03S
MACOMB*        CLEAR     75  69  82 SW3       30.05S
JACKSONVILLE*  CLEAR     76  70  84 SE5       30.03S
PITTSFIELD*    CLEAR     74  69  85 S3        30.05S
$$

ILZ028>032-037-038-041>044-048-051>054-059>061-050800-
CENTRAL ILLINOIS

CITY           SKY/WX    TMP DP  RH WIND       PRES   REMARKS
PONTIAC        CLEAR     70  68  93 CALM      30.04F
BLOOMINGTON    CLEAR     70  65  84 S6        30.06S
DECATUR        CLEAR     71  61  70 CALM      30.05S
PEORIA         CLEAR     76  67  73 SW3       30.04S
LACON*         CLEAR     73  66  79 S5        30.03S
LINCOLN*       CLEAR     71  65  81 CALM      30.04S
SPRINGFIELD    CLEAR     74  67  78 S6        30.04F
TAYLORVILLE    CLEAR     68  64  88 CALM      30.04F
$$

ILZ033-039-045-046-055>057-062-063-050800-
EAST-CENTRAL ILLINOIS

CITY           SKY/WX    TMP DP  RH WIND       PRES   REMARKS
CHAMPAIGN      CLEAR     67  64  90 CALM      30.05S
RANTOUL*       CLEAR     70  66  88 CALM      30.04F
MATTOON        PTCLDY    70  66  87 SE5       30.05R
PARIS*         PTCLDY    68  67  98 E3        30.07S
$$

ILZ079-100>102-050800-
SOUTHWEST ILLINOIS

CITY           SKY/WX    TMP DP  RH WIND       PRES   REMARKS
ALTON          CLEAR     69  68  97 CALM      30.04S FOG
BELLEVILLE     CLEAR     72  72 100 CALM      30.03S FOG
CAHOKIA*       CLEAR     74  69  85 CALM      30.03F
SPARTA*        CLEAR     71  70  95 CALM      30.05S
$$

ILZ064>066-069>071-074>076-080>082-084>086-088>090-092>094-050800-
SOUTH-CENTRAL ILLINOIS

CITY           SKY/WX    TMP DP  RH WIND       PRES   REMARKS
CARBONDALE     FOG       68  66  93 CALM      30.03F VSB 1/4
CAIRO*           N/A     68  68 100 CALM      30.03F FOG
EFFINGHAM*     CLEAR     68  64  86 CALM      30.06R
MARION         CLEAR     72  70  94 CALM      30.04F FOG
MT. VERNON     CLEAR     70  64  83 CALM      30.05F
CENTRALIA*     CLEAR     69  69  99 CALM      30.03F FOG
SALEM*         CLEAR     72  68  89 CALM      30.03F
METROPOLIS*      N/A     68  68 100 CALM      30.04F FOG
$$

ILZ067-068-072-073-078-083-087-091-050800-
SOUTHEAST ILLINOIS

CITY           SKY/WX    TMP DP  RH WIND       PRES   REMARKS
LAWRENCEVILLE  MOCLDY    74  69  85 CALM      30.06R
FLORA*         MOCLDY    68  65  91 CALM      30.04F
FAIRFIELD*     CLEAR     69  68  95 CALM      30.03F
HARRISBURG*    CLEAR     69  68  96 CALM      30.04S FOG
ROBINSON*      MOCLDY    69  67  92 CALM      30.06S
CARMI*         CLEAR     69  68  98 W3        30.04S FOG
$$

ABBREVIATIONS USED IN REMARKS
   TC - TEMPERATURE IN CELSIUS
  WCI - WIND CHILL INDEX
   HX - HEAT INDEX
  VSB - VISIBILITY
$$



USA.gov is the U.S. government's official web portal to all federal, state and local government web resources and services.